User: anonymous   Login
Location: Unspecified
(0.0000°N, 0.0000°E)
Time: 20:53:41
(UTC+00:00)
Language:

KKS-1 - Orbit

View from above orbital plane
View from above orbital plane
View from above satellite
View from above satellite

Ground track
Ground track

The orbit data is extracted from the following two-line orbital elements,

1 33499U 09002H   20268.86317818 +.00000067 +00000-0 +17873-4 0  9992
2 33499 098.3042 126.3256 0009360 160.3538 199.8033 14.75560707627241
Epoch (UTC): 24 September 2020 20:42:58
Eccentricity: 0.0009360
inclination: 98.3042°
perigee height: 637 km
apogee height: 650 km
right ascension of ascending node: 126.3256°
argument of perigee: 160.3538°
revolutions per day: 14.75560707
mean anomaly at epoch: 199.8033°
orbit number at epoch: 62724

The dashed part of the orbit path shows where the satellite is in the earth's shadow,  

DLR